PICOSAT 4

Satellite information

Favourite Embed

Satellite Type and Status

PAYLOADIN ORBIT

Key statistics

Satellite PICOSAT 4 at a glance.

Uptime

9348

Days in orbit

Revolutions

≈ 14.5

Per day

Orbit

SSO

Sun Synchronous Orbit

Inclination

100.2

Latest

Satellite identification and parameters

Extended collection of information and parameters for PICOSAT 4.

Object identification

Identified? True

Debris? False

Object name: PICOSAT 4

International designator: 2000-004K

Object number (NORAD): 26092

Object ID (CCSDS): 26092

Country: UNITED STATES OF AMERICA (US)

Current information (Y/N): Y

RCS size: SMALL

Orbital parameters

Period: 99.444 minutes

Inclination: 100.1903 deg

SMA: 7110.168 km

Apoapsis: 753.957 km

Periapsis: 710.109 km

RAAN: 204.4103 deg

Eccentricy: 0.00308346

Argument of periapsis: 258.0709 deg

Mean anomaly: 101.702 deg

Mean motion: 14.48048123 rev/day

Mean motion (dot): 0.00001617 rev/day2

B* drag term: 0.00044890471 1/REarth

Two-line elements (TLE)

Creation date: Aug. 31, 2025, 2:26 a.m.

Reference frame: TEME

Reference center: EARTH

Epoch: Aug. 30, 2025, 7:49 p.m. UTC

TLE line 0: 0 PICOSAT 4

TLE line 1: 1 26092U 00004K 25242.82582419 .00001617 00000-0 44890-3 0 9990

TLE line 2: 2 26092 100.1903 204.4103 0030835 258.0709 101.7020 14.48048123344309

Live tracking on map

Real-time ground track for satellite PICOSAT 4.

In-orbit conjunctions

There are no conjunctions computed for PICOSAT 4, at the moment. Check back to stay up to date, as we update our databases every day.

Go to all conjunctions

Associated space launch

The JAWSAT (Joint Air Force Academy / Weber State University Satellite) project was developed by students working alongside aerospace professionals. Initially designed with a pulsed-plasma thruster to train Air Force Academy cadets (see JAWSAT), the mission has since evolved to include the efforts of several universities, local aerospace companies, the Air Force Academy, the Air Force Research Laboratory, and NASA. Utilizing breakthrough technologies, JAWSAT deployed four satellites when it reached orbit. The onboard imaging system recorded the deployment of each payload with its six digital cameras. The first free-flying Academy satellite, FalconSat-1 carried the CHAWS (Charging Hazards and Wake Studies) experiment developed by the Physics Department at the Academy.

PICOSAT 4 was lifted into orbit during the mission ‘Minotaur I | JAWSAT & FalconSat 1’, on board a Minotaur I space rocket.

The launch took place on Jan. 27, 2000, 3:03 a.m. from Space Launch Complex 8.

For more information about the launch, click the button.

Launch to space Minotaur I | JAWSAT & FalconSat 1
Minotaur I | JAWSAT & FalconSat 1

Agency: N/A

Status: Launch Successful

Launch date: Jan. 27, 2000, 3:03 a.m. UTC

Rocket: Minotaur I

Launch pad: Space Launch Complex 8

Location: Vandenberg SFB, CA, USA

...

Latest news about this satellite

There are no fresh news available about this satellite. Check back as we update our databases every day.


Newsletter sign-up

Weekly statistics, charts and insights to help you stay on top of the space industry.